Hickory, NC

6:44 PM EDT on June 24, 2018 (GMT -0400)
Hickory Regional

Weather History for KHKY - October, 2017

Change the Weather History Date:

Thursday, October 12, 2017

  Actual Average Record
Temperature  
Mean Temperature 72 °F -  
Max Temperature 81 °F 71 °F 88 °F (1954)
Min Temperature 64 °F 49 °F 34 °F (1964)
Cooling Degree Days 8    
Growing Degree Days 22 (Base 50)    
Moisture  
Dew Point 67 °F    
Average Humidity 84    
Maximum Humidity 100    
Minimum Humidity 65    
Precipitation  
Precipitation 0.00 in - - ()
Sea Level Pressure  
Sea Level Pressure 30.05 in    
Wind  
Wind Speed 5 mph (NE)    
Max Wind Speed 13 mph    
Max Gust Speed -    
Visibility 10 miles    
Events      
Averages and records for this station are not official NWS values.
T = Trace of Precipitation, MM = Missing Value Source: NWS Daily Summary

Daily Weather History Graph

Daily Weather History Graph

Search for Another Location

Airport or City:

Astronomy

Oct. 12, 2017 Rise Set
Actual Time 7:29 AM EDT 6:53 PM EDT
Civil Twilight 7:04 AM EDT 7:19 PM EDT
Nautical Twilight 6:34 AM EDT 7:48 PM EDT
Astronomical Twilight 6:04 AM EDT 8:18 PM EDT
Moon 12:04 AM EDT (10/12) 2:32 PM EDT (10/12)
Length of Visible Light 12h 15m
Length of Day
11h 23m
Waning Gibbous, 49% of the Moon is Illuminated
Oct 12
Waning Gibbous
Oct 19
New
Oct 27
First Quarter
Nov 4
Full
Nov 10
Last Quarter

Hourly Weather History & Observations

Time (EDT) Temp. Heat Index Dew Point Humidity Pressure Visibility Wind Dir Wind Speed Gust Speed Precip Events Conditions
12:53 AM 70.0 °F - 70.0 °F 100% 29.98 in 10.0 mi West 3.5 mph - N/A   Clear
1:53 AM 71.1 °F - 70.0 °F 96% 29.97 in 10.0 mi Calm Calm - N/A   Clear
2:53 AM 69.1 °F - 69.1 °F 100% 29.96 in 10.0 mi Calm Calm - N/A   Clear
3:53 AM 68.0 °F - 68.0 °F 100% 29.96 in 10.0 mi Calm Calm - N/A   Clear
4:53 AM 66.9 °F - 66.9 °F 100% 29.96 in 10.0 mi NW 3.5 mph - N/A   Clear
5:53 AM 66.0 °F - 66.0 °F 100% 29.97 in 9.0 mi NNW 4.6 mph - N/A   Clear
6:53 AM 66.0 °F - 66.0 °F 100% 29.99 in 10.0 mi Calm Calm - N/A   Clear
7:42 AM 66.0 °F - 66.0 °F 100% 30.08 in 8.0 mi Calm Calm - N/A   Scattered Clouds
7:53 AM 64.9 °F - 64.9 °F 100% 30.02 in 6.0 mi Calm Calm - N/A   Scattered Clouds
8:53 AM 70.0 °F - 66.9 °F 90% 30.04 in 10.0 mi NE 3.5 mph - N/A   Clear
9:53 AM 73.0 °F - 68.0 °F 84% 30.05 in 10.0 mi NE 6.9 mph - N/A   Mostly Cloudy
10:53 AM 75.0 °F - 66.9 °F 76% 30.06 in 10.0 mi NE 9.2 mph - N/A   Overcast
11:53 AM 75.0 °F - 66.9 °F 76% 30.06 in 10.0 mi NE 5.8 mph - N/A   Overcast
12:53 PM 79.0 °F - 66.9 °F 66% 30.05 in 10.0 mi NE 8.1 mph - N/A   Overcast
1:50 PM 78.8 °F - 66.2 °F 65% 30.10 in 10.0 mi Variable 5.8 mph - N/A   Overcast
1:53 PM 77.0 °F - 66.9 °F 71% 30.04 in 10.0 mi NE 5.8 mph - N/A   Overcast
2:16 PM 78.1 °F - 66.9 °F 68% 30.09 in 10.0 mi NNE 6.9 mph - N/A   Overcast
2:53 PM 79.0 °F - 68.0 °F 69% 30.02 in 10.0 mi NE 6.9 mph - N/A   Overcast
3:05 PM 78.1 °F - 68.0 °F 71% 30.08 in 10.0 mi ENE 8.1 mph - N/A   Overcast
3:29 PM 81.0 °F 84.1 °F 69.1 °F 67% 30.08 in 10.0 mi North 9.2 mph - N/A   Overcast
3:53 PM 80.1 °F 82.9 °F 69.1 °F 69% 30.02 in 10.0 mi NE 9.2 mph - N/A   Mostly Cloudy
4:53 PM 80.1 °F 82.7 °F 68.0 °F 67% 30.02 in 10.0 mi East 8.1 mph - N/A   Mostly Cloudy
5:53 PM 77.0 °F - 68.0 °F 74% 30.04 in 10.0 mi ENE 11.5 mph - N/A   Scattered Clouds
6:49 PM 73.4 °F - 68.0 °F 83% 30.11 in 10.0 mi ENE 12.7 mph - N/A   Mostly Cloudy
6:53 PM 73.0 °F - 68.0 °F 84% 30.06 in 10.0 mi ENE 11.5 mph - N/A   Mostly Cloudy
7:53 PM 71.1 °F - 66.9 °F 87% 30.10 in 10.0 mi ENE 10.4 mph - N/A   Overcast
8:53 PM 70.0 °F - 66.0 °F 87% 30.11 in 10.0 mi ENE 10.4 mph - N/A   Overcast
9:53 PM 69.1 °F - 66.0 °F 90% 30.13 in 10.0 mi NE 10.4 mph - N/A   Overcast
10:53 PM 69.1 °F - 66.0 °F 90% 30.13 in 10.0 mi NE 8.1 mph - N/A   Overcast
11:53 PM 68.0 °F - 66.0 °F 93% 30.14 in 10.0 mi ENE 8.1 mph - N/A   Overcast